This is the latest recevied weather packets stored in our database for station/object DG1JLA-3. If no packets are shown the sender has not sent any weather packets the latest 10 day(s).
| Time | Temp. | Humidity | Pressure | Rain* | Wind** | Luminosity | Snow |
|---|---|---|---|---|---|---|---|
| 1777875595 | 13.89° C | 75% | 1015.4 hPa | 0 mm | - | - | - |
| 1777875295 | 13.89° C | 75% | 1015.4 hPa | 0 mm | - | - | - |
| 1777874995 | 13.89° C | 75% | 1015.4 hPa | 0 mm | - | - | - |
| 1777874695 | 14.44° C | 75% | 1015.4 hPa | 0 mm | - | - | - |
| 1777874395 | 14.44° C | 74% | 1015.4 hPa | 0 mm | - | - | - |
| 1777874095 | 14.44° C | 74% | 1015.3 hPa | 0 mm | - | - | - |
| 1777873795 | 14.44° C | 74% | 1015.3 hPa | 0 mm | - | - | - |
| 1777873495 | 14.44° C | 73% | 1015.3 hPa | 0 mm | - | - | - |
| 1777873195 | 14.44° C | 74% | 1015.5 hPa | 0 mm | - | - | - |
| 1777872895 | 14.44° C | 74% | 1015.4 hPa | 0 mm | - | - | - |
| 1777872595 | 13.89° C | 75% | 1015.5 hPa | 0 mm | - | - | - |
| 1777872295 | 13.89° C | 75% | 1015.4 hPa | 0 mm | - | - | - |
| 1777871995 | 13.33° C | 75% | 1015.4 hPa | 0 mm | - | - | - |
| 1777871695 | 13.33° C | 76% | 1015.2 hPa | 0 mm | - | - | - |
| 1777871395 | 13.33° C | 76% | 1015.2 hPa | 0 mm | - | - | - |
| 1777871095 | 13.33° C | 76% | 1015.3 hPa | 0 mm | - | - | - |
| 1777870795 | 12.78° C | 76% | 1015.3 hPa | 0 mm | - | - | - |
| 1777870495 | 12.78° C | 76% | 1015.2 hPa | 0 mm | - | - | - |
| 1777870195 | 12.22° C | 76% | 1015.2 hPa | 0 mm | - | - | - |
| 1777869895 | 12.22° C | 77% | 1015.1 hPa | 0 mm | - | - | - |
| 1777869595 | 11.67° C | 77% | 1015.1 hPa | 0 mm | - | - | - |
| 1777869295 | 11.67° C | 78% | 1015.1 hPa | 0 mm | - | - | - |
| 1777868995 | 11.67° C | 77% | 1015 hPa | 0 mm | - | - | - |
| 1777868695 | 11.67° C | 78% | 1015 hPa | 0 mm | - | - | - |
| 1777868395 | 11.67° C | 78% | 1014.9 hPa | 0 mm | - | - | - |
* Rain latest hour (hover to see other rain measurements)
** Current wind speed in m/s (hover to see current wind gust speed)